South Bend, IN

10:41 PM EDT on May 26, 2017 (GMT -0400)
South Bend Regional

Weather History for KSBN - February, 2013

Change the Weather History Date:

Tuesday, February 26, 2013

  Actual Average Record
Temperature  
Mean Temperature 33 °F 31 °F  
Max Temperature 35 °F 39 °F 67 °F (1932)
Min Temperature 31 °F 23 °F -6 °F (1963)
Degree Days  
Heating Degree Days 32 34  
Month to date heating degree days 988 976  
Since 1 July heating degree days 4336 4624  
Cooling Degree Days 0 0  
Month to date cooling degree days 0 0  
Year to date cooling degree days 0 0  
Moisture  
Dew Point 28 °F    
Average Humidity 73    
Maximum Humidity 89    
Minimum Humidity 56    
Precipitation  
Precipitation 0.52 in 0.07 in 1.36 in (1899)
Month to date precipitation 2.25 1.79  
Year to date precipitation 7.25 4.08  
Snow  
Snow 1.20 in 0.50 in 8.70 in (2002)
Month to date snowfall 24.6 14.2  
Since 1 July snowfall 45.6 57.3  
Snow Depth 0.00 in    
Sea Level Pressure  
Sea Level Pressure 29.62 in    
Wind  
Wind Speed 12 mph (ENE)    
Max Wind Speed 25 mph    
Max Gust Speed 37 mph    
Visibility 5 miles    
Events Rain , Snow    
T = Trace of Precipitation, MM = Missing Value Source: NWS Daily Summary

Daily Weather History Graph

Daily Weather History Graph

Search for Another Location

Airport or City:

Trip Planner

Search our weather history database for the weather conditions in past years. The results will help you decide how hot, cold, wet, or windy it might be!

Date:

Astronomy

Feb. 26, 2013 Rise Set
Actual Time 7:24 AM EST 6:32 PM EST
Civil Twilight 6:56 AM EST 7:00 PM EST
Nautical Twilight 6:24 AM EST 7:32 PM EST
Astronomical Twilight 5:52 AM EST 8:04 PM EST
Moon 7:50 PM EST (2/26) 7:25 AM EST (2/26)
Length of Visible Light 12h 04m
Length of Day
11h 08m
Full, 99% of the Moon is Illuminated
Feb 26
Full
Mar 4
Last Quarter
Mar 11
New
Mar 19
First Quarter
Mar 27
Full

Hourly Weather History & Observations

Time (EST) Temp. Windchill Dew Point Humidity Pressure Visibility Wind Dir Wind Speed Gust Speed Precip Events Conditions
12:54 AM 32.0 °F 24.2 °F 24.1 °F 73% 30.02 in 10.0 mi East 9.2 mph - N/A   Clear
1:54 AM 32.0 °F 23.6 °F 21.9 °F 66% 30.00 in 10.0 mi East 10.4 mph - N/A   Clear
2:54 AM 32.0 °F 23.0 °F 21.9 °F 66% 29.96 in 10.0 mi East 11.5 mph 19.6 mph N/A   Clear
3:54 AM 30.9 °F 21.7 °F 21.0 °F 67% 29.91 in 10.0 mi ENE 11.5 mph 18.4 mph N/A   Clear
4:54 AM 32.0 °F 22.5 °F 21.0 °F 64% 29.90 in 10.0 mi East 12.7 mph 20.7 mph N/A   Clear
5:54 AM 32.0 °F 23.0 °F 21.9 °F 66% 29.86 in 10.0 mi ENE 11.5 mph 17.3 mph N/A   Clear
6:54 AM 32.0 °F 21.2 °F 21.0 °F 64% 29.83 in 10.0 mi ENE 16.1 mph 23.0 mph N/A   Clear
7:54 AM 33.1 °F 20.9 °F 21.0 °F 61% 29.82 in 10.0 mi East 21.9 mph 26.5 mph N/A   Partly Cloudy
8:54 AM 34.0 °F 23.4 °F 21.0 °F 59% 29.79 in 10.0 mi ENE 17.3 mph 26.5 mph N/A   Clear
9:54 AM 35.1 °F 24.8 °F 21.9 °F 59% 29.71 in 10.0 mi East 17.3 mph 28.8 mph N/A   Overcast
10:45 AM 33.8 °F 22.8 °F 24.8 °F 70% 29.63 in 7.0 mi ENE 18.4 mph 32.2 mph 0.01 in Rain Light Freezing Rain
10:54 AM 34.0 °F 24.2 °F 25.0 °F 70% 29.65 in 6.0 mi ENE 15.0 mph 34.5 mph 0.02 in Rain Light Freezing Rain
11:06 AM 33.8 °F 22.5 °F 26.6 °F 75% 29.61 in 6.0 mi East 19.6 mph 33.4 mph 0.01 in Rain Light Freezing Rain
11:18 AM 33.8 °F 23.2 °F 26.6 °F 75% 29.61 in 6.0 mi East 17.3 mph 28.8 mph 0.02 in Rain Light Freezing Rain
11:26 AM 33.8 °F 21.9 °F 26.6 °F 75% 29.60 in 7.0 mi East 21.9 mph 34.5 mph 0.03 in Rain Light Rain
11:54 AM 34.0 °F 22.7 °F 27.0 °F 75% 29.59 in 10.0 mi ENE 19.6 mph 32.2 mph 0.04 in Rain Light Rain
12:54 PM 34.0 °F 22.7 °F 28.0 °F 79% 29.60 in 4.0 mi ESE 19.6 mph 28.8 mph 0.04 in Rain Rain
1:07 PM 33.8 °F 23.9 °F 28.4 °F 81% 29.59 in 2.0 mi East 15.0 mph 25.3 mph 0.03 in Rain Heavy Rain
1:17 PM 33.8 °F 23.2 °F 28.4 °F 81% 29.57 in 2.0 mi East 17.3 mph 32.2 mph 0.07 in Rain Rain
1:28 PM 33.8 °F 23.9 °F 28.4 °F 81% 29.56 in 4.0 mi East 15.0 mph 24.2 mph 0.10 in Rain Light Rain
1:54 PM 34.0 °F 23.4 °F 28.9 °F 82% 29.56 in 6.0 mi East 17.3 mph 33.4 mph 0.13 in Rain Light Rain
2:24 PM 33.8 °F 23.9 °F 28.4 °F 81% 29.52 in 2.5 mi East 15.0 mph 27.6 mph 0.02 in Snow Light Snow
2:31 PM 33.8 °F 23.5 °F 30.2 °F 87% 29.52 in 2.0 mi East 16.1 mph 23.0 mph 0.02 in Snow Light Snow
2:45 PM 33.8 °F 24.3 °F 30.2 °F 87% 29.51 in 0.8 mi East 13.8 mph 20.7 mph 0.03 in Snow Light Snow
2:54 PM 33.1 °F 24.4 °F 30.0 °F 89% 29.53 in 0.8 mi East 11.5 mph 23.0 mph 0.04 in Snow Light Snow
2:57 PM 33.8 °F 23.9 °F 30.2 °F 87% 29.51 in 1.0 mi East 15.0 mph 21.9 mph 0.00 in Snow Light Snow
3:14 PM 33.8 °F 24.8 °F 30.2 °F 87% 29.50 in 3.0 mi East 12.7 mph 20.7 mph 0.01 in Snow Light Snow
3:54 PM 34.0 °F 23.8 °F 30.9 °F 89% 29.52 in 3.0 mi East 16.1 mph 21.9 mph 0.01 in Snow Light Snow
4:54 PM 34.0 °F 25.5 °F 30.9 °F 89% 29.52 in 2.5 mi ENE 11.5 mph 21.9 mph 0.01 in Snow Light Snow
5:12 PM 33.8 °F 25.3 °F 30.2 °F 87% 29.49 in 1.0 mi East 11.5 mph 20.7 mph 0.01 in Snow Light Snow
5:54 PM 34.0 °F 26.0 °F 30.9 °F 89% 29.52 in 1.2 mi East 10.4 mph - 0.05 in Snow Light Snow
6:03 PM 33.8 °F 27.0 °F 30.2 °F 87% 29.50 in 2.5 mi ENE 8.1 mph 18.4 mph 0.00 in Snow Light Snow
6:12 PM 33.8 °F 24.8 °F 30.2 °F 87% 29.50 in 3.0 mi East 12.7 mph 19.6 mph 0.00 in Snow Light Snow
6:54 PM 34.0 °F 26.6 °F 30.9 °F 89% 29.51 in 5.0 mi ENE 9.2 mph - 0.01 in   Overcast
7:46 PM 33.8 °F 27.7 °F 30.2 °F 87% 29.50 in 2.5 mi ENE 6.9 mph - 0.02 in Snow Light Snow
7:54 PM 33.1 °F 26.1 °F 30.9 °F 92% 29.52 in 2.5 mi NE 8.1 mph - 0.02 in Snow Light Snow
8:12 PM 33.8 °F 27.0 °F 30.2 °F 87% 29.49 in 1.0 mi ENE 8.1 mph - 0.01 in Snow Light Snow
8:54 PM 33.1 °F 27.7 °F 30.9 °F 92% 29.51 in 1.0 mi NE 5.8 mph - 0.06 in Snow Light Snow
9:14 PM 33.8 °F 29.6 °F 30.2 °F 87% 29.48 in 3.0 mi Variable 4.6 mph - 0.02 in Snow Light Snow
9:24 PM 33.8 °F 29.6 °F 30.2 °F 87% 29.48 in 2.5 mi ENE 4.6 mph - 0.02 in Snow Light Snow
9:34 PM 33.8 °F 28.6 °F 30.2 °F 87% 29.48 in 3.0 mi NE 5.8 mph - 0.02 in Snow Light Snow
9:54 PM 33.1 °F 27.7 °F 30.9 °F 92% 29.50 in 2.0 mi NE 5.8 mph - 0.03 in Snow Light Snow
10:03 PM 33.8 °F 28.6 °F 30.2 °F 87% 29.48 in 1.0 mi NE 5.8 mph - 0.00 in Snow Light Snow
10:54 PM 33.1 °F 27.7 °F 30.9 °F 92% 29.49 in 2.0 mi NE 5.8 mph - 0.03 in Snow Light Snow
11:44 PM 33.8 °F 30.8 °F 30.2 °F 87% 29.46 in 1.2 mi NE 3.5 mph - 0.03 in Snow Light Snow
11:54 PM 33.1 °F 30.0 °F 30.9 °F 92% 29.49 in 2.0 mi NNE 3.5 mph - 0.03 in Snow Light Snow